Regional Weather Roundup
Issued by NWS Cleveland, OH

Current Version | Previous Version | Text Only | Print | Product List | Glossary On
Versions: 1 2 3 4 5 6 7 8 9 10 11 12 13 14 15 16 17 18 19 20 21 22 23 24 25 26 27 28 29 30 31 32 33 34 35 36 37 38 39 40 41 42 43 44 45 46 47 48 49 50
000 ASUS41 KCLE 111112 RWRCLE OHIO REGIONAL WEATHER ROUNDUP NATIONAL WEATHER SERVICE WILMINGTON, OH 600 AM EST TUE DEC 11 2018 NOTE: "FAIR" INDICATES FEW OR NO CLOUDS BELOW 12,000 FEET WITH NO SIGNIFICANT WEATHER AND/OR OBSTRUCTIONS TO VISIBILITY. OHZ001>008-015>018-024>027-034-035-043-044-111200- NORTHWEST OHIO CITY SKY/WX TMP DP RH WIND PRES REMARKS DEFIANCE CLOUDY 22 19 89 SW7 30.12S FOG WCI 13 FINDLAY FAIR 18 16 92 S8 30.12S FOG WCI 8 TOLEDO EXPRESS CLOUDY 23 18 81 SW12 30.11S HAZE WCI 12 TOLEDO EXEC CLOUDY 22 18 85 SW12 30.13S FOG WCI 10 LIMA FAIR 19 16 88 SW8 30.12F FOG WCI 9 $$ OHZ009>014-019>023-028>033-038-089-111200- NORTHEAST OHIO CITY SKY/WX TMP DP RH WIND PRES REMARKS CLE-HOPKINS MOCLDY 21 17 84 SW7 30.15R WCI 12 CLE-LAKEFRONT MOCLDY 23 17 78 SW13 30.13R WCI 11 CUY CO. ARPT NOT AVBL LORAIN-ELYRIA FAIR 19 13 77 W7 30.13R WCI 10 ASHTABULA FAIR 24 20 84 SW7 30.09F WCI 16 AKRON-CANTON FAIR 21 16 81 SW9 30.11F HAZE WCI 11 WOOSTER FAIR 19 17 92 SW9 30.13S FOG WCI 8 MANSFIELD FAIR 18 15 88 S10 30.10S WCI 6 YOUNGSTOWN MOCLDY 23 19 85 S6 30.10S WCI 16 $$ OHZ042-051>053-060>062-070>072-077>081-111200- SOUTHWEST OHIO CITY SKY/WX TMP DP RH WIND PRES REMARKS CINC-COVINGTON FAIR 18 14 84 SW5 30.21R FOG WCI 11 CINC-LUNKEN FOG 16 13 88 NE3 30.27R VSB 1/4 HAMILTON FAIR 18 14 84 CALM 30.24S FOG DAYTON FAIR 19 16 88 S9 30.18F FOG WCI 8 WRIGHT-PAT AFB CLEAR 17 14 86 S6 30.18F WCI 9 DAYTON GENERAL FAIR 19 15 84 S9 30.18F FOG WCI 8 WILMINGTON FAIR 18 16 92 SW7 30.19R FOG WCI 9 $$ OHZ036-037-039>041-045>050-054>059-063>069-073>076-082>088-111200- CENTRAL AND SOUTHEAST OHIO CITY SKY/WX TMP DP RH WIND PRES REMARKS COLUMBUS CLOUDY 21 17 84 SW8 30.20S FOG WCI 11 OSU AIRPORT FAIR 18 16 92 S6 30.18F FOG WCI 10 BOLTON FIELD CLOUDY 20 18 94 SW6 30.20S FOG WCI 12 RICKENBACK AFB CLOUDY 20 18 90 SW6 30.21R FOG WCI 13 NEWARK CLOUDY 22 18 85 SW8 30.19R FOG WCI 12 MARION FAIR 18 16 92 S10 30.14F FOG WCI 6 LANCASTER CLOUDY 22 20 92 SW6 30.21R FOG WCI 14 ZANESVILLE CLOUDY 22 18 85 VRB6 30.19R FOG WCI 14 NEW PHILLY CLOUDY 23 18 81 S6 30.17S HAZE WCI 16 $$

USA.gov is the U.S. government's official web portal to all federal, state and local government web resources and services.